Location: Eppenbrunn
(49.1158°N, 7.5601°E)
Time: 07:54:44
(UTC+00:00)

IGS 5A - Pass Details

Date: 09 April 2020
Orbit: 585 x 587 km, 97.6° (Epoch: 29 May)

Event Time Altitude Azimuth Distance (km) Brightness Sun altitude
Exits shadow 20:20:46 48° 115° (ESE) 769 3.6 -19.4°
Maximum altitude 20:21:31 57° 72° (ENE) 693 3.6 -19.5°
Drops below altitude 10° 20:25:37 10° 354° (N) 1,922 6.7 -20.0°
Sets 20:27:48 0° 351° (N) 2,827 7.7 -20.3°
